Retour au catalogue

COSMOS 2545

GLONASS

ActifNavigationMEO
NORAD 45358·PAYLOAD·🇷🇺 Russia

Lancé Mar 16, 2020 depuis Plesetsk Cosmodrome

Loading…

Prochains Passages (prochaines 24 heures)

TLE

FraisSource: CelesTrak SupGP

Époque: Sep 13, 2026, 23:59 UTC

1 45358C 20018A   26256.99979167  .00000000  00000+0  00000+0 0  2568
2 45358  64.2965 309.2932 0011985 237.0244 188.4344  2.13102766    14

Suivez COSMOS 2545 en temps réel avec AllMySat

Download on the App Store